Location: Ellingshausen
(50.5460°N, 10.4723°E)
Time: 13:07:46
(UTC+00:00)

Cosmos 676 Rocket - Pass Details

Date: 14 April 2026
Orbit: 750 x 779 km, 74.0° (Epoch: 19 May)

Event Time Altitude Azimuth Distance (km) Brightness Sun altitude
Rises 22:53:11 0° 338° (NNW) 3,271 8.4 -29.5°
Reaches altitude 10° 22:55:41 10° 345° (NNW) 2,337 7.4 -29.6°
Enters shadow 23:00:42 46° 55° (NE) 1,038 4.7 -29.6°
